Temp
-4 -4 -4 -4 -4 -4 -4 -4 -4 -4 -4 -4 -4 -4 -4 -4 -4 -4 -4 -4 -4 -4 -4 -4 -4 -4 -4 -4 -4 -4 -4 -4 -3 -3 -3 -3 -2 -2 -2 -2 -2 -2 -2 -1 -1 -1 -1 -1 -1 -1 -1 -1 -1 -0 -0 -0 -0 0 0 1 1 1 2 2 2 3 3 3 3
-4 -4 -4 -4 -4 -4 -4 -4 -4 -4 -5 -5 -5 -5 -4 -4 -4 -4 -4 -4 -4 -4 -4 -4 -4 -4 -4 -4 -4 -4 -4 -4 -3 -3 -3 -3 -2 -2 -2 -2 -2 -2 -2 -2 -1 -1 -1 -1 -1 -1 -1 -1 -1 -0 -0 -0 -0 -0 -0 0 0 0 1 2 2 3 3 3 3
-5 -5 -5 -5 -5 -5 -5 -5 -5 -5 -5 -5 -5 -5 -4 -4 -4 -4 -4 -4 -4 -4 -4 -4 -4 -4 -4 -4 -4 -4 -4 -4 -4 -3 -3 -3 -2 -2 -2 -2 -2 -2 -2 -2 -1 -1 -1 -1 -2 -2 -1 -1 -1 -1 -0 -0 -0 -0 -0 -0 -0 0 1 1 2 2 3 3 3
-5 -5 -5 -5 -5 -5 -5 -5 -5 -5 -5 -5 -5 -5 -5 -5 -5 -5 -5 -5 -5 -5 -5 -5 -5 -5 -5 -4 -4 -4 -4 -4 -4 -3 -3 -3 -3 -2 -2 -2 -2 -2 -2 -2 -2 -2 -2 -2 -2 -2 -1 -1 -1 -1 -0 -0 -0 -0 -0 -0 -0 0 0 1 1 2 3 3 4
-6 -6 -6 -6 -6 -6 -6 -6 -6 -6 -6 -6 -5 -5 -5 -5 -5 -5 -5 -5 -5 -5 -5 -5 -5 -5 -5 -5 -5 -5 -4 -4 -4 -3 -3 -3 -3 -3 -3 -2 -2 -2 -2 -2 -2 -2 -2 -2 -2 -2 -2 -1 -1 -1 -1 -1 -1 -1 -0 -0 -0 0 0 0 1 1 1 2 3
-6 -6 -6 -6 -6 -6 -6 -6 -7 -7 -6 -6 -6 -6 -5 -6 -6 -6 -6 -6 -6 -5 -5 -5 -5 -5 -5 -5 -5 -5 -5 -4 -4 -4 -4 -3 -3 -3 -3 -3 -2 -2 -2 -2 -2 -2 -2 -2 -2 -2 -2 -2 -1 -1 -1 -1 -1 -1 -1 -0 -0 0 0 0 0 0 1 1 1
-7 -7 -7 -7 -7 -7 -7 -7 -7 -7 -7 -7 -6 -6 -6 -6 -6 -6 -6 -6 -6 -6 -6 -6 -6 -6 -6 -5 -5 -5 -5 -5 -4 -4 -4 -4 -4 -4 -3 -3 -3 -2 -2 -2 -2 -2 -2 -2 -2 -2 -2 -2 -1 -1 -1 -1 -1 -1 -1 -0 -0 0 0 0 0 0 0 0 0
-7 -7 -7 -8 -8 -8 -8 -8 -8 -8 -8 -7 -7 -7 -7 -7 -7 -7 -6 -6 -6 -6 -6 -6 -6 -6 -6 -6 -6 -6 -5 -5 -5 -5 -4 -4 -4 -4 -4 -3 -3 -3 -3 -3 -3 -3 -3 -2 -2 -2 -2 -2 -2 -1 -1 -1 -1 -1 -1 -1 -0 -0 0 -0 0 0 0 0 0
-8 -8 -8 -8 -8 -8 -8 -9 -8 -8 -8 -8 -7 -7 -7 -7 -7 -7 -7 -7 -7 -7 -6 -6 -6 -7 -7 -6 -6 -6 -6 -6 -6 -5 -5 -5 -5 -4 -4 -4 -3 -3 -3 -3 -3 -3 -3 -3 -2 -2 -2 -2 -2 -2 -2 -2 -1 -1 -1 -1 -0 -0 0 0 0 0 0 -0 0
-8 -8 -8 -8 -9 -9 -9 -9 -9 -8 -8 -8 -8 -8 -8 -8 -7 -7 -7 -7 -7 -7 -7 -7 -7 -7 -7 -7 -7 -7 -6 -6 -6 -6 -6 -5 -5 -5 -5 -4 -4 -4 -4 -4 -4 -3 -3 -3 -3 -2 -2 -2 -2 -2 -2 -2 -1 -1 -1 -1 -1 -0 -0 0 0 0 -0 -0 -0
-9 -9 -9 -9 -9 -9 -9 -9 -9 -9 -8 -8 -8 -8 -8 -8 -8 -8 -7 -7 -7 -7 -7 -7 -7 -7 -7 -7 -7 -7 -7 -7 -6 -6 -6 -6 -5 -5 -5 -5 -4 -4 -4 -4 -4 -4 -3 -3 -3 -3 -3 -2 -2 -2 -2 -2 -2 -1 -1 -1 -1 -1 -0 -0 -0 -0 -0 -0 -0
-9 -9 -9 -9 -9 -9 -9 -9 -9 -9 -8 -8 -8 -8 -8 -8 -8 -8 -8 -7 -7 -7 -7 -8 -8 -8 -8 -8 -7 -7 -7 -7 -7 -7 -6 -6 -6 -5 -5 -5 -5 -5 -5 -4 -4 -4 -4 -3 -3 -3 -3 -3 -3 -2 -2 -2 -2 -2 -2 -1 -1 -1 -1 -0 -0 -0 -0 -0 -0
-9 -9 -9 -10 -10 -9 -9 -9 -9 -9 -9 -9 -9 -9 -9 -8 -8 -8 -8 -8 -7 -8 -8 -8 -8 -8 -8 -8 -8 -8 -8 -7 -7 -7 -6 -6 -6 -6 -6 -5 -5 -5 -5 -5 -4 -4 -4 -4 -3 -3 -3 -3 -3 -2 -2 -2 -2 -2 -2 -2 -1 -1 -1 -1 -1 -1 -0 -0 -0
-9 -10 -10 -10 -10 -10 -9 -9 -9 -9 -9 -9 -9 -9 -9 -9 -8 -8 -8 -8 -8 -8 -8 -8 -8 -8 -8 -8 -8 -8 -8 -7 -7 -7 -7 -6 -6 -6 -6 -6 -5 -5 -5 -5 -4 -4 -4 -4 -4 -3 -3 -3 -3 -2 -2 -2 -2 -2 -2 -2 -2 -2 -1 -1 -1 -1 -1 -1 -0
-10 -10 -10 -10 -10 -10 -9 -9 -9 -9 -9 -9 -9 -9 -9 -9 -9 -8 -8 -8 -8 -8 -8 -8 -8 -8 -8 -8 -8 -8 -8 -8 -7 -7 -7 -6 -6 -6 -6 -6 -6 -5 -5 -5 -5 -4 -4 -4 -4 -4 -4 -3 -3 -2 -2 -2 -2 -2 -2 -2 -2 -2 -2 -2 -1 -1 -1 -1 -1
-10 -10 -10 -10 -10 -10 -10 -9 -9 -9 -9 -9 -9 -9 -9 -9 -9 -8 -8 -8 -8 -8 -8 -9 -9 -9 -9 -8 -8 -8 -8 -8 -7 -7 -7 -7 -6 -6 -6 -6 -6 -5 -5 -5 -5 -5 -5 -5 -4 -4 -4 -3 -3 -2 -2 -2 -2 -2 -2 -2 -2 -2 -2 -2 -2 -1 -1 -1 -1
-10 -10 -10 -10 -10 -10 -10 -10 -10 -10 -10 -10 -10 -10 -9 -9 -9 -9 -8 -8 -8 -9 -9 -9 -9 -9 -9 -9 -8 -8 -8 -8 -7 -7 -7 -7 -7 -7 -6 -6 -6 -5 -5 -5 -5 -5 -5 -5 -5 -4 -4 -3 -3 -2 -2 -2 -2 -2 -2 -2 -2 -2 -2 -2 -2 -2 -2 -1 -1
-10 -10 -10 -10 -10 -10 -10 -10 -10 -10 -10 -10 -10 -10 -9 -9 -9 -9 -9 -9 -9 -9 -9 -9 -9 -9 -9 -9 -8 -8 -8 -8 -7 -7 -7 -7 -7 -7 -6 -6 -6 -6 -5 -5 -5 -5 -5 -5 -5 -4 -4 -3 -2 -2 -2 -2 -3 -3 -3 -3 -3 -3 -2 -2 -2 -2 -2 -2 -1
-10 -10 -10 -10 -10 -10 -10 -10 -10 -10 -10 -10 -10 -10 -9 -9 -9 -9 -9 -9 -9 -9 -9 -9 -9 -9 -9 -9 -8 -8 -8 -8 -7 -7 -7 -7 -7 -7 -6 -6 -6 -6 -5 -5 -5 -5 -5 -5 -5 -4 -3 -3 -2 -2 -2 -3 -3 -3 -3 -3 -3 -3 -2 -2 -2 -2 -2 -2 -2
-10 -10 -10 -10 -10 -10 -10 -10 -10 -10 -10 -10 -10 -10 -9 -9 -9 -9 -9 -9 -9 -9 -9 -9 -9 -9 -9 -9 -8 -8 -8 -8 -8 -7 -7 -7 -7 -7 -6 -6 -6 -6 -6 -6 -6 -5 -5 -5 -5 -4 -3 -2 -2 -2 -3 -3 -3 -3 -3 -3 -3 -3 -3 -2 -2 -2 -2 -2 -2
-11 -10 -10 -10 -10 -10 -10 -10 -10 -10 -10 -10 -10 -10 -9 -9 -9 -9 -9 -9 -9 -9 -9 -9 -9 -9 -9 -9 -8 -8 -8 -8 -8 -8 -7 -7 -7 -7 -6 -6 -6 -6 -6 -6 -6 -5 -5 -5 -4 -3 -2 -2 -2 -3 -3 -3 -3 -3 -3 -3 -3 -3 -2 -2 -2 -2 -2 -2 -2
-11 -11 -10 -10 -10 -10 -10 -10 -10 -10 -10 -10 -10 -9 -9 -9 -9 -9 -10 -9 -9 -9 -9 -9 -9 -9 -9 -9 -8 -8 -8 -8 -8 -7 -7 -7 -7 -7 -6 -6 -6 -6 -6 -6 -6 -5 -5 -5 -4 -3 -2 -2 -2 -3 -3 -3 -3 -3 -3 -3 -3 -2 -2 -2 -2 -2 -2 -2 -2
-11 -11 -11 -11 -10 -10 -10 -10 -10 -10 -10 -10 -9 -9 -9 -9 -9 -10 -10 -10 -9 -9 -9 -9 -9 -9 -9 -8 -8 -8 -8 -8 -8 -7 -7 -7 -7 -7 -6 -6 -6 -6 -6 -6 -6 -5 -5 -4 -3 -2 -2 -2 -2 -2 -3 -3 -3 -3 -3 -3 -3 -3 -2 -2 -2 -2 -2 -2 -2
-11 -11 -11 -11 -11 -11 -10 -10 -10 -10 -10 -10 -9 -9 -9 -9 -10 -10 -10 -10 -10 -9 -9 -9 -9 -9 -9 -8 -8 -8 -8 -8 -7 -7 -7 -7 -7 -6 -6 -6 -6 -6 -6 -6 -5 -5 -4 -3 -2 -2 -2 -3 -2 -2 -2 -2 -2 -3 -3 -3 -3 -3 -3 -2 -2 -2 -2 -2 -2
-11 -11 -11 -11 -11 -11 -11 -10 -10 -10 -10 -10 -9 -9 -9 -9 -10 -10 -10 -10 -10 -9 -9 -9 -9 -9 -8 -8 -8 -8 -8 -8 -7 -7 -7 -7 -6 -6 -6 -6 -6 -6 -6 -6 -5 -4 -4 -3 -2 -2 -2 -2 -2 -2 -2 -2 -2 -2 -3 -3 -3 -3 -3 -3 -2 -2 -2 -2 -2
-11 -11 -11 -11 -11 -11 -11 -11 -10 -10 -10 -10 -9 -9 -9 -10 -10 -10 -10 -10 -10 -9 -9 -9 -9 -9 -8 -8 -8 -8 -8 -7 -7 -7 -7 -7 -6 -6 -6 -6 -6 -6 -6 -6 -5 -4 -3 -3 -2 -2 -2 -2 -2 -2 -2 -2 -2 -2 -2 -2 -2 -2 -3 -3 -3 -2 -2 -2 -2
-11 -11 -11 -11 -11 -11 -11 -11 -10 -10 -10 -10 -9 -9 -9 -10 -10 -10 -10 -10 -10 -9 -9 -9 -9 -8 -8 -8 -8 -8 -7 -7 -7 -7 -7 -6 -6 -6 -6 -6 -6 -6 -6 -5 -5 -4 -3 -2 -2 -2 -2 -2 -2 -2 -2 -2 -2 -2 -2 -2 -2 -2 -2 -3 -3 -3 -2 -2 -2
-11 -11 -11 -11 -11 -11 -11 -11 -10 -10 -10 -10 -9 -9 -9 -10 -10 -10 -10 -10 -9 -9 -9 -9 -8 -8 -8 -8 -8 -8 -7 -7 -7 -7 -7 -6 -6 -6 -6 -6 -6 -6 -6 -5 -4 -4 -3 -2 -2 -2 -2 -2 -2 -2 -2 -2 -2 -2 -2 -2 -2 -2 -2 -3 -3 -3 -2 -2 -2
-11 -11 -11 -11 -11 -11 -11 -11 -10 -10 -10 -10 -9 -9 -9 -9 -10 -10 -10 -10 -9 -9 -9 -8 -8 -8 -8 -8 -8 -7 -7 -7 -7 -7 -6 -6 -6 -6 -6 -6 -5 -6 -5 -5 -4 -3 -3 -2 -2 -2 -2 -2 -2 -2 -2 -2 -2 -2 -2 -2 -2 -2 -2 -3 -3 -3 -2 -2 -2
-11 -11 -11 -11 -11 -11 -11 -11 -10 -10 -10 -10 -9 -9 -9 -9 -9 -9 -9 -9 -9 -9 -9 -9 -8 -8 -8 -8 -8 -7 -7 -7 -7 -7 -6 -6 -6 -6 -6 -5 -5 -5 -5 -5 -4 -3 -3 -2 -2 -2 -2 -2 -2 -2 -2 -2 -2 -2 -2 -2 -2 -2 -2 -3 -3 -3 -3 -2 -2
-11 -11 -11 -11 -11 -11 -11 -11 -10 -10 -10 -10 -9 -9 -9 -9 -9 -9 -9 -9 -9 -9 -9 -9 -9 -8 -8 -8 -8 -7 -7 -7 -7 -7 -6 -6 -6 -6 -6 -5 -5 -5 -5 -5 -4 -3 -3 -2 -2 -2 -2 -2 -2 -2 -2 -2 -2 -2 -2 -2 -2 -2 -3 -3 -3 -3 -3 -2 -2
-11 -11 -11 -11 -11 -11 -11 -10 -10 -10 -10 -10 -9 -9 -9 -9 -9 -9 -9 -9 -9 -9 -9 -9 -9 -9 -8 -8 -8 -7 -7 -7 -7 -6 -6 -6 -6 -6 -5 -5 -5 -5 -5 -5 -4 -3 -3 -3 -2 -3 -3 -3 -2 -2 -2 -2 -2 -2 -2 -2 -2 -3 -3 -3 -3 -3 -3 -2 -2
-11 -11 -11 -11 -11 -11 -11 -10 -10 -10 -10 -10 -9 -9 -9 -9 -9 -9 -9 -9 -9 -9 -9 -9 -9 -9 -8 -8 -8 -8 -7 -7 -7 -6 -6 -6 -6 -6 -5 -5 -5 -5 -5 -5 -4 -4 -3 -3 -3 -3 -3 -3 -3 -2 -2 -2 -2 -2 -2 -2 -2 -3 -3 -3 -3 -3 -3 -2 -2
-11 -11 -11 -11 -11 -11 -10 -10 -10 -10 -10 -10 -9 -9 -9 -9 -9 -9 -9 -9 -9 -9 -9 -9 -9 -9 -8 -8 -8 -8 -7 -7 -7 -7 -7 -6 -6 -6 -6 -5 -5 -5 -5 -5 -4 -4 -3 -3 -3 -3 -3 -3 -3 -2 -2 -3 -3 -2 -2 -2 -3 -3 -3 -3 -3 -3 -3 -2 -2
-10 -10 -10 -10 -10 -10 -10 -10 -10 -10 -10 -10 -9 -9 -9 -9 -9 -9 -9 -9 -9 -9 -9 -9 -9 -9 -9 -8 -8 -8 -8 -7 -7 -7 -7 -7 -6 -6 -6 -5 -5 -5 -5 -5 -4 -4 -3 -3 -3 -3 -3 -3 -3 -3 -3 -3 -3 -3 -3 -3 -3 -3 -3 -3 -3 -3 -3 -2 -2
-10 -10 -10 -10 -10 -10 -10 -10 -10 -10 -10 -10 -9 -9 -9 -9 -9 -9 -9 -9 -9 -9 -9 -9 -9 -9 -9 -8 -8 -8 -8 -7 -7 -7 -7 -7 -7 -6 -6 -6 -5 -5 -5 -5 -4 -4 -4 -3 -3 -3 -3 -3 -3 -3 -3 -3 -3 -3 -3 -3 -3 -3 -3 -3 -3 -3 -3 -2 -2
-10 -10 -10 -10 -10 -10 -10 -10 -10 -10 -10 -10 -9 -9 -9 -9 -9 -9 -9 -9 -9 -9 -9 -9 -9 -9 -9 -9 -8 -8 -8 -7 -7 -7 -7 -7 -7 -6 -6 -6 -6 -6 -5 -5 -5 -4 -4 -3 -3 -3 -3 -3 -3 -3 -3 -3 -3 -3 -3 -3 -3 -3 -3 -3 -3 -3 -3 -2 -2
-10 -10 -10 -10 -10 -10 -10 -10 -10 -10 -10 -10 -9 -9 -9 -9 -9 -9 -9 -9 -9 -9 -9 -9 -9 -9 -9 -9 -8 -8 -8 -7 -7 -7 -7 -7 -7 -7 -6 -6 -6 -6 -6 -5 -5 -4 -4 -4 -4 -3 -3 -3 -3 -3 -3 -3 -3 -3 -3 -3 -3 -3 -3 -3 -3 -3 -3 -2 -2
-10 -10 -10 -10 -10 -10 -10 -10 -10 -10 -10 -10 -10 -10 -10 -10 -10 -9 -9 -9 -9 -9 -9 -9 -9 -9 -9 -9 -8 -8 -8 -7 -7 -7 -7 -7 -7 -7 -7 -6 -6 -6 -6 -6 -5 -5 -4 -4 -4 -4 -4 -4 -4 -4 -4 -3 -3 -3 -3 -3 -3 -3 -3 -3 -3 -3 -3 -2 -2
-10 -10 -10 -10 -10 -10 -10 -10 -10 -10 -10 -10 -10 -10 -10 -10 -10 -10 -10 -10 -10 -9 -9 -9 -9 -9 -9 -9 -8 -8 -8 -8 -7 -7 -7 -7 -7 -7 -7 -7 -6 -6 -6 -6 -5 -5 -4 -4 -4 -4 -4 -4 -4 -4 -4 -4 -3 -3 -3 -3 -3 -3 -3 -3 -3 -3 -3 -3 -2
-10 -10 -10 -10 -10 -10 -10 -10 -10 -10 -10 -10 -10 -10 -10 -10 -10 -10 -10 -10 -10 -10 -9 -9 -9 -9 -9 -9 -8 -8 -8 -8 -7 -7 -7 -7 -7 -7 -7 -7 -7 -6 -6 -6 -6 -5 -5 -4 -4 -4 -4 -4 -4 -4 -4 -4 -3 -4 -4 -4 -4 -3 -3 -3 -3 -3 -3 -3 -3
Height
874 872 871 869 868 866 864 863 861 859 858 856 854 852 850 848 846 844 842 840 838 836 834 831 830 827 826 824 822 820 818 816 815 813 811 809 807 805 803 802 800 798 796 795 793 791 789 787 785 783 780 778 776 774 771 770 767 765 763 761 759 757 755 753 751 750 749 748 747
874 872 871 869 868 866 864 862 861 859 858 856 854 852 850 848 846 844 842 840 838 836 834 831 829 827 825 823 821 820 818 816 814 812 810 808 806 804 803 801 799 798 796 794 792 790 788 786 784 782 780 777 775 773 771 769 767 765 763 761 759 756 754 752 750 748 747 746 745
873 872 871 869 867 866 864 862 861 859 857 856 854 852 850 848 846 844 842 840 838 836 834 831 829 827 825 823 821 819 817 815 813 811 809 807 805 804 802 800 798 797 795 793 791 790 788 786 784 781 779 776 774 772 770 768 766 764 762 760 758 756 754 751 749 747 745 744 742
873 872 871 869 867 866 864 863 861 859 857 855 853 851 850 848 846 844 842 840 838 836 834 831 829 826 824 822 820 818 816 815 813 811 809 807 805 803 801 800 798 796 794 792 791 789 787 785 783 781 778 776 774 772 770 768 766 764 762 759 757 755 753 751 749 746 744 742 740
873 872 871 869 867 866 864 863 861 859 857 855 853 851 850 848 846 844 842 840 837 836 833 831 829 826 824 822 820 818 816 814 812 810 808 806 804 802 801 799 797 795 793 792 790 788 786 784 782 780 777 775 773 771 769 767 765 763 761 759 757 755 752 750 748 746 744 741 739
873 871 870 869 867 866 864 862 861 859 857 855 853 851 850 848 846 844 842 840 837 835 833 831 828 826 824 821 819 817 815 813 811 809 807 805 803 801 800 798 796 795 793 791 789 787 785 783 781 779 776 774 772 770 768 766 765 762 760 758 756 754 752 750 747 745 743 741 739
873 871 870 869 867 866 864 862 860 858 857 855 853 851 850 848 846 844 841 839 837 835 832 830 828 826 824 821 819 816 814 812 810 808 806 805 803 801 799 797 796 794 792 790 788 786 785 782 780 778 775 773 771 769 767 766 764 762 759 757 755 753 751 749 747 744 742 740 737
873 871 870 868 867 865 863 862 860 858 856 855 853 851 849 847 845 843 841 839 836 834 832 830 828 826 823 821 819 816 814 811 810 808 806 804 802 800 798 796 795 793 791 790 788 786 783 781 779 777 775 772 770 768 766 764 763 761 759 756 754 752 750 748 746 744 741 739 736
872 871 870 868 866 865 863 861 860 858 856 854 852 851 849 847 845 843 841 838 836 834 832 830 827 825 823 821 818 816 814 811 809 807 805 803 801 799 797 796 794 792 790 789 787 785 782 780 778 776 774 772 770 767 765 763 761 760 758 756 753 751 749 747 745 743 741 738 736
872 871 869 867 866 864 862 861 859 857 856 854 852 850 848 846 844 842 840 838 836 834 832 829 827 825 822 820 818 816 813 811 809 806 805 802 801 799 797 795 793 791 789 787 786 783 781 779 777 775 773 771 769 766 764 762 761 759 757 755 752 750 748 746 744 742 739 737 735
872 871 869 867 866 864 862 860 858 856 855 853 851 850 848 846 844 842 840 838 836 833 831 829 826 824 822 820 817 815 813 811 809 806 804 802 800 798 796 795 792 791 789 786 785 782 780 778 776 774 772 770 768 765 763 761 759 757 756 754 751 749 747 745 743 741 738 736 734
872 870 869 867 865 863 861 860 858 856 854 853 851 849 847 845 843 841 839 837 835 833 830 828 826 824 821 819 817 815 813 811 808 806 804 802 800 798 796 794 792 790 788 786 784 782 780 777 775 773 771 768 766 764 762 760 758 756 754 752 751 748 746 744 742 740 737 735 732
872 870 868 866 865 863 861 859 858 856 854 852 850 848 846 844 842 841 838 836 834 832 830 827 825 823 821 819 816 814 812 810 808 806 804 801 800 797 795 793 791 789 787 785 783 781 779 776 774 772 770 767 765 763 761 759 757 755 753 751 749 747 745 743 741 739 736 734 732
871 870 868 866 865 863 861 859 857 855 854 852 850 848 846 844 842 840 838 836 834 831 829 826 825 822 821 818 816 814 812 810 808 806 803 801 799 797 795 792 790 788 786 784 782 780 778 776 773 771 769 766 764 762 760 758 756 755 753 751 748 746 744 742 740 738 736 733 731
871 870 868 866 864 863 861 859 857 855 853 851 849 847 846 844 841 840 837 835 833 831 828 826 824 821 820 818 816 813 811 809 807 805 803 801 799 796 794 792 790 787 785 783 781 779 776 775 772 770 768 766 763 761 759 758 756 754 752 750 748 746 744 741 739 737 735 732 730
871 869 867 866 864 862 861 859 857 855 853 851 849 847 845 843 841 839 837 835 832 830 828 826 823 821 819 817 815 813 811 809 807 805 802 800 798 796 794 791 789 787 784 782 780 777 775 773 771 769 766 764 762 761 759 757 755 753 751 749 747 745 743 741 739 737 734 732 730
871 869 867 866 864 862 861 859 857 855 853 851 849 847 845 843 841 839 836 834 832 829 827 825 823 820 818 816 814 812 810 808 806 804 802 800 798 795 793 791 789 786 784 781 779 776 774 771 769 767 765 763 761 760 758 756 754 752 751 749 747 745 743 741 739 736 734 732 730
870 869 867 865 863 862 860 858 856 854 852 850 848 846 845 843 841 838 836 834 831 829 826 824 822 820 818 816 814 812 810 808 806 804 802 800 797 795 793 790 788 786 783 781 778 776 773 771 768 766 763 762 761 759 757 756 754 752 750 748 746 744 742 740 738 736 734 732 730
870 868 866 865 863 861 860 858 856 854 852 850 848 846 844 842 840 838 835 833 831 828 826 823 821 819 817 815 813 811 810 808 806 803 801 799 797 795 792 790 787 785 782 780 778 775 772 770 767 764 762 761 760 758 757 755 753 751 750 748 746 744 742 740 738 736 734 732 730
870 868 866 865 863 861 859 857 855 853 851 850 847 846 843 841 840 837 835 832 830 828 825 823 821 819 816 815 812 811 809 807 805 803 801 798 796 794 791 789 786 784 781 779 777 774 771 768 765 763 761 760 759 758 756 754 752 751 749 747 746 744 742 740 738 736 734 732 730
869 868 866 864 862 861 859 857 855 853 851 849 847 845 843 841 839 836 834 832 829 827 825 822 820 818 816 814 812 810 808 806 805 802 800 798 796 793 791 789 786 783 781 778 776 773 770 766 763 761 761 759 758 757 755 754 752 751 749 747 745 743 741 740 738 736 734 732 730
869 867 866 864 862 860 858 856 855 853 851 849 846 845 843 841 838 836 833 831 829 826 824 822 820 818 816 814 812 810 808 806 804 802 800 798 795 793 790 788 786 783 780 777 774 771 768 764 762 760 759 758 757 756 754 753 752 750 749 747 745 743 741 739 738 736 734 732 730
869 867 865 863 861 860 858 856 854 852 850 848 846 844 842 840 837 835 833 831 828 826 824 822 820 818 816 814 812 810 808 806 803 801 799 797 795 792 790 787 785 782 779 776 774 771 767 763 761 759 758 757 756 755 754 752 751 750 748 746 745 743 741 740 738 736 734 732 730
868 866 865 863 861 859 857 855 853 851 849 847 846 844 841 839 837 835 832 830 828 826 824 821 820 817 816 813 811 810 807 805 803 801 798 796 794 792 789 786 784 782 779 776 773 771 767 764 761 759 757 756 755 754 753 752 751 750 748 746 745 743 741 740 738 736 734 732 730
868 866 864 862 860 858 856 855 852 851 849 847 845 843 841 839 836 834 831 829 827 825 823 821 819 817 815 813 811 809 807 805 803 800 798 796 793 791 789 786 784 781 779 776 773 770 767 764 761 759 757 756 755 754 753 752 751 750 748 747 745 744 742 740 738 736 734 732 730
867 865 863 861 860 857 856 854 852 850 848 846 844 842 841 838 836 834 831 829 827 825 823 821 819 817 815 813 811 809 807 805 802 800 798 796 793 791 788 786 783 781 778 776 773 770 766 763 760 757 755 755 754 754 753 752 751 749 748 747 746 744 742 741 739 736 734 732 730
866 864 862 861 859 857 855 853 851 849 847 846 844 842 840 838 836 834 831 829 826 825 823 821 819 817 815 813 811 809 806 805 802 800 798 796 793 791 788 786 783 781 778 776 773 769 765 761 757 755 754 754 754 753 753 752 751 749 748 747 746 744 743 741 739 737 735 732 731
866 864 862 860 858 856 854 852 851 849 847 845 843 841 840 838 836 833 831 829 826 824 822 821 819 817 815 813 811 808 806 805 802 800 798 796 793 791 788 786 783 781 778 775 772 769 765 760 755 753 754 754 754 753 753 752 751 749 748 747 746 745 743 741 740 738 736 733 732
865 863 861 859 857 855 853 851 850 848 846 844 843 841 839 837 835 833 831 828 826 824 822 821 819 817 815 813 811 808 806 805 802 800 798 796 793 791 788 786 783 781 778 776 772 769 765 760 756 755 755 755 754 754 753 752 751 750 748 747 746 745 744 742 740 738 736 735 733
864 862 860 858 856 855 853 851 849 847 846 844 842 840 838 836 835 832 831 828 826 824 823 821 819 817 815 813 811 808 806 805 802 800 798 796 793 791 788 786 783 781 778 776 773 770 766 761 758 756 756 756 755 754 753 752 751 750 749 748 747 746 744 742 741 739 737 736 734
863 861 860 858 856 854 852 851 849 847 845 843 841 840 838 836 834 832 830 828 826 824 822 821 819 817 815 813 811 809 806 805 802 801 798 796 793 791 788 786 784 781 778 776 773 770 766 762 760 758 757 756 755 755 754 753 751 751 749 748 747 746 745 743 741 739 738 737 735
862 861 859 857 855 853 851 850 848 846 845 843 841 839 837 836 834 832 830 828 826 824 822 820 818 816 814 812 811 809 806 805 802 801 799 796 794 791 789 786 784 781 779 776 774 771 767 764 762 760 758 757 756 755 754 753 752 751 750 749 748 746 745 744 741 740 739 737 736
862 860 858 856 854 852 851 849 847 846 844 842 841 839 837 835 833 831 830 828 826 824 822 820 818 816 814 812 810 808 806 805 803 801 799 797 794 792 789 786 784 782 780 777 774 771 768 766 763 761 759 757 756 755 754 753 752 751 751 750 748 747 746 744 742 741 739 738 737
861 859 857 855 854 852 850 848 846 845 843 841 840 838 836 835 833 831 829 827 826 824 822 820 818 816 815 812 811 809 807 805 803 801 799 797 795 792 790 787 785 782 780 778 775 772 769 766 764 761 760 758 757 756 755 754 753 752 751 750 749 748 746 745 743 741 740 739 738
860 858 856 855 853 851 849 847 846 844 842 841 839 837 836 834 832 831 829 827 825 823 821 820 818 816 814 812 811 809 807 805 803 801 799 797 796 793 791 788 785 783 781 778 776 773 771 768 765 763 761 759 757 756 755 754 753 752 752 751 750 748 747 745 743 741 740 740 739
860 858 856 854 852 850 849 847 845 843 842 840 838 836 835 833 832 830 828 826 825 823 821 819 818 816 814 812 810 808 807 805 803 801 800 798 796 794 791 789 786 784 781 779 777 774 772 770 767 764 762 760 759 757 756 755 754 753 752 751 751 749 748 746 744 742 741 740 740
859 857 855 853 851 850 848 846 845 843 841 839 838 836 834 833 831 829 828 826 824 822 821 819 817 816 814 812 810 808 807 805 803 801 800 798 796 794 792 790 787 785 782 780 778 776 773 771 769 766 764 762 760 758 757 756 755 754 753 752 751 750 749 747 745 744 742 741 741
858 856 855 853 851 849 847 846 844 842 840 839 837 836 834 832 831 829 827 826 824 822 820 818 817 815 814 812 810 808 806 805 803 801 800 798 796 795 792 791 788 786 784 782 780 777 775 773 770 768 765 763 761 759 758 756 756 755 754 753 752 751 750 748 747 746 744 743 742
857 856 854 852 850 848 847 845 843 842 840 838 836 835 833 832 830 829 827 826 824 822 820 818 816 815 813 811 810 808 806 805 803 801 800 798 796 795 793 791 789 787 785 783 781 779 776 774 772 770 767 765 763 761 759 757 756 756 755 754 753 752 751 750 749 747 746 745 744
857 855 853 852 850 848 846 844 843 841 840 838 836 834 833 831 830 828 827 825 824 822 820 818 816 815 813 811 810 808 806 804 803 801 800 798 796 795 793 791 790 788 786 784 782 781 778 776 774 771 769 767 764 762 760 759 758 757 756 755 754 753 752 751 750 749 748 747 745
856 854 853 851 849 847 846 844 842 841 839 837 836 834 833 831 829 828 826 825 823 821 820 818 816 815 813 811 809 807 806 804 802 801 800 798 796 795 793 792 790 788 786 785 783 781 780 777 775 773 771 769 766 764 761 760 759 758 757 756 755 754 753 752 751 750 749 748 747
Wind_Speed
18 18 18 18 18 18 18 18 18 19 19 20 20 20 20 20 20 20 20 21 21 22 22 23 23 24 25 26 26 27 27 27 27 28 29 29 28 27 26 25 25 25 26 26 26 25 24 24 25 24 24 23 23 23 23 23 23 24 25 25 25 25 25 24 24 24 24 24 24
19 19 19 19 19 19 19 19 19 19 20 20 20 20 20 20 20 20 21 21 21 22 23 23 23 24 26 26 26 26 26 27 27 28 29 29 28 27 26 26 26 26 26 26 25 25 24 25 25 24 23 22 22 22 22 22 23 24 25 25 25 25 24 24 23 23 24 24 24
19 19 19 19 20 20 20 20 20 21 22 21 20 20 20 20 20 20 21 22 22 23 23 23 24 25 26 26 26 26 27 27 28 28 28 28 27 27 27 26 26 26 26 25 25 25 25 25 25 24 23 22 22 22 22 22 23 23 24 24 24 23 23 23 23 23 23 23 23
20 20 20 20 21 21 21 20 21 22 22 21 20 20 20 20 20 21 22 23 23 23 23 24 25 25 26 26 27 27 28 28 28 27 27 27 27 27 27 27 26 26 26 25 25 25 26 26 24 23 22 22 22 22 21 22 23 23 23 23 23 22 22 22 23 23 23 23 23
20 20 20 20 21 21 21 21 22 22 22 21 20 20 20 20 21 22 22 23 23 23 24 25 25 25 26 26 27 28 28 28 27 27 26 27 27 27 27 27 26 26 25 25 25 26 26 26 24 23 22 22 21 21 21 22 23 24 24 23 22 22 21 21 22 22 23 23 23
21 21 21 21 21 21 21 21 22 22 22 21 20 20 21 21 22 23 24 24 24 24 25 25 25 25 26 27 28 28 28 28 27 27 26 27 27 27 28 27 27 26 25 25 25 26 26 26 24 23 22 21 21 21 21 22 23 23 24 23 22 21 21 21 21 22 22 23 25
20 21 21 21 21 21 21 22 22 22 21 20 20 21 22 23 24 24 25 24 24 24 24 24 25 25 27 28 28 28 28 28 27 27 27 27 27 28 28 28 27 26 25 25 26 26 26 26 24 22 22 21 21 21 21 22 23 24 24 24 23 22 21 21 21 21 22 23 25
20 20 20 21 21 21 22 22 22 22 21 20 20 22 23 24 24 25 25 24 24 24 24 24 25 26 27 28 28 28 28 28 28 27 27 27 28 29 29 28 27 26 26 26 26 26 26 25 23 22 21 21 20 21 22 23 24 24 24 24 23 22 22 22 21 21 22 23 24
20 20 21 21 21 21 22 22 22 21 21 20 21 22 23 24 24 24 24 24 24 24 25 25 26 27 27 27 27 27 27 27 27 28 28 28 28 29 29 28 28 27 27 27 27 27 26 25 23 22 21 21 21 22 23 24 24 24 24 23 23 23 23 23 22 22 22 22 22
20 21 21 21 21 21 22 22 21 21 21 21 21 22 23 24 24 24 23 24 24 25 25 25 26 26 27 27 26 26 26 27 27 28 28 28 29 29 28 28 28 28 28 27 27 27 26 24 23 23 23 23 24 25 25 24 24 24 24 23 22 23 24 24 23 22 22 21 21
20 21 20 20 21 22 22 22 21 21 20 21 22 23 23 23 23 23 24 24 25 25 26 25 26 26 26 26 26 26 26 26 27 28 28 28 28 28 28 28 28 28 28 28 27 26 25 24 25 25 26 26 25 25 24 24 24 24 24 23 23 24 24 23 23 22 22 22 21
20 20 20 21 21 22 22 22 21 21 21 21 22 23 23 23 23 24 24 25 25 26 25 25 25 25 25 25 25 26 26 26 27 28 28 28 28 28 28 28 28 28 28 28 27 26 25 25 26 27 27 27 25 24 23 24 24 24 24 24 24 23 23 23 23 22 22 22 22
20 20 21 21 22 22 22 22 21 21 21 22 22 23 23 23 23 24 24 25 26 26 25 25 25 24 24 25 25 26 26 27 27 27 27 27 27 28 28 28 28 28 28 28 27 27 27 27 28 28 28 27 26 24 24 24 24 24 24 24 24 23 23 23 23 23 23 22 22
20 20 21 21 22 22 22 22 21 21 21 22 22 22 23 23 23 23 24 25 26 26 25 25 24 24 24 25 25 26 26 26 27 27 27 27 27 27 28 28 28 28 28 28 28 28 28 29 29 29 28 27 26 25 24 23 23 23 23 23 23 23 23 23 23 23 23 22 22
20 20 21 21 22 22 22 22 22 21 22 22 22 23 23 23 23 23 24 26 26 26 25 24 24 25 25 25 25 25 26 26 26 26 26 26 27 27 28 28 28 29 29 29 29 30 30 30 30 30 29 28 27 25 24 23 22 22 22 22 23 23 23 23 23 22 22 22 22
20 20 21 21 22 22 23 23 22 22 22 22 23 23 23 23 23 24 25 26 26 25 25 25 25 25 25 25 25 25 25 25 25 25 26 26 27 27 28 28 29 29 29 30 30 31 31 31 31 31 30 28 26 24 22 22 22 22 22 21 22 22 22 22 22 22 22 22 21
20 20 21 22 22 23 23 23 23 23 23 23 24 23 23 23 24 25 26 26 26 25 25 26 26 25 25 25 25 25 25 25 25 25 25 26 27 28 28 28 29 29 29 30 31 31 32 33 33 32 31 28 24 21 21 21 20 20 20 20 20 20 20 21 21 21 21 21 21
20 21 21 22 22 23 23 24 23 23 23 24 24 23 23 24 25 25 26 26 26 26 26 26 26 25 25 25 25 25 25 25 25 25 26 26 27 27 28 28 29 29 29 30 30 31 32 33 34 34 31 25 20 18 18 18 18 18 19 19 19 19 20 20 20 21 21 21 21
20 21 22 22 23 23 24 24 24 24 24 24 24 24 24 24 25 26 26 26 26 25 26 26 26 25 25 25 25 25 25 24 25 25 26 26 27 27 28 28 29 29 29 30 30 31 32 34 35 34 29 21 17 15 16 16 17 17 18 18 19 19 19 20 20 20 20 20 20
21 21 22 22 23 23 24 24 24 24 24 24 24 24 24 25 26 26 26 26 26 25 25 25 25 25 25 25 26 26 25 24 24 25 26 26 26 27 27 28 29 29 29 30 30 31 33 34 35 32 25 16 13 13 13 14 15 17 17 18 18 19 19 20 20 21 21 21 20
21 22 22 22 23 23 24 24 24 24 24 24 23 24 24 25 26 26 26 26 25 25 25 25 25 25 26 26 26 26 25 24 24 25 25 26 26 27 27 28 28 29 29 30 31 32 33 35 35 30 20 12 11 11 12 13 15 16 17 17 18 19 19 20 21 21 22 21 21
21 22 22 23 23 23 24 24 24 24 23 23 23 23 24 25 26 26 26 25 25 25 25 25 25 25 25 25 25 25 25 25 25 25 25 25 26 27 27 27 28 28 29 30 31 32 34 36 35 27 16 9 9 10 11 12 13 15 17 18 19 19 20 20 21 22 22 22 21
22 22 22 22 23 23 23 23 23 23 23 23 23 24 24 25 26 26 26 25 25 25 24 24 24 25 25 25 25 25 25 25 25 25 25 25 26 27 27 27 27 28 29 29 30 31 35 38 36 25 12 6 8 10 11 12 13 15 17 19 19 20 21 21 21 21 22 22 21
22 22 23 23 23 23 23 23 23 23 23 23 23 24 24 25 26 26 26 26 25 25 24 24 24 24 24 24 24 24 24 25 25 25 26 26 26 27 27 26 27 27 28 28 29 31 35 38 35 23 9 5 8 10 10 11 12 14 17 18 19 19 20 21 21 21 21 22 22
22 23 23 23 23 24 24 23 23 23 23 23 23 24 24 25 25 26 26 26 26 25 24 23 24 24 24 23 23 23 24 25 25 25 26 26 27 27 27 26 26 27 27 28 30 32 35 38 35 22 9 5 7 9 9 10 11 13 15 16 16 17 19 20 21 21 21 22 23
23 23 23 24 24 24 24 23 23 23 23 23 23 23 24 24 25 26 26 26 26 25 24 23 22 22 22 22 23 23 24 24 24 25 26 27 27 27 27 26 26 27 28 28 31 33 37 40 36 23 9 6 7 8 9 10 11 12 13 14 15 16 17 18 19 20 21 22 23
23 24 24 24 24 24 24 23 23 23 23 23 23 23 23 24 25 25 26 26 25 24 23 21 21 21 21 22 23 23 24 24 24 25 25 26 27 27 26 25 26 27 29 30 32 35 39 43 35 20 8 6 7 9 9 10 11 12 13 13 14 16 17 17 18 18 20 22 23
23 24 24 25 25 24 24 24 23 23 23 23 23 23 23 24 24 25 25 25 25 23 22 21 20 20 21 22 23 23 24 24 24 24 25 25 26 26 26 26 26 28 29 30 33 37 42 43 30 16 8 8 8 9 9 10 11 11 12 13 14 16 17 17 17 18 18 20 21
24 24 24 25 25 24 24 23 23 23 23 22 22 22 23 23 23 24 24 25 24 23 21 20 20 20 21 22 23 23 24 24 24 24 24 25 26 26 26 26 27 28 29 31 34 39 43 40 26 16 11 10 10 9 9 9 10 11 11 12 14 15 16 17 18 18 17 18 19
24 24 24 24 24 24 24 23 23 22 22 22 22 22 22 23 23 23 24 24 23 22 21 21 21 21 22 22 23 23 23 23 23 24 25 25 26 27 27 27 27 28 29 31 34 40 42 37 26 18 15 13 11 10 10 10 10 11 11 12 13 15 16 17 18 18 17 17 18
24 24 24 24 24 24 23 23 22 22 22 22 21 22 22 22 22 23 23 23 23 22 22 22 22 22 22 22 22 23 23 23 23 24 25 25 26 27 27 27 27 27 29 32 35 39 41 37 28 21 18 15 13 11 11 11 11 11 11 12 13 15 16 17 19 19 17 16 16
24 24 24 24 24 23 23 23 22 22 22 22 21 21 21 22 22 22 22 22 22 22 22 22 22 22 22 22 22 23 23 23 23 24 24 25 26 27 27 27 26 27 28 32 35 38 40 39 32 26 21 17 14 12 12 12 12 12 12 12 14 15 16 18 20 19 17 15 14
24 24 24 23 23 23 23 23 22 22 22 21 21 21 21 21 22 22 22 21 22 22 22 22 22 22 22 22 22 22 23 23 23 24 24 25 26 26 27 26 26 26 29 32 35 37 39 40 36 31 25 20 15 13 13 13 13 13 13 13 14 15 17 19 20 20 17 14 13
23 23 23 23 23 23 23 23 22 22 22 22 21 21 21 21 21 22 21 21 21 21 21 21 21 21 21 21 22 22 22 22 23 23 24 25 25 26 26 26 26 27 30 32 34 36 37 39 38 35 29 23 18 15 15 15 14 13 13 14 14 15 17 19 21 20 17 13 13
23 23 23 23 23 23 23 23 22 22 22 22 22 21 21 21 21 21 21 21 21 21 21 21 20 20 21 21 21 21 21 22 22 23 23 24 24 25 25 26 26 28 30 32 34 35 36 37 38 36 31 26 21 17 16 15 14 14 14 14 14 16 17 20 22 21 18 13 13
23 23 23 23 23 23 23 23 23 23 23 22 22 22 22 21 21 20 20 21 21 21 21 21 20 20 21 21 22 21 21 21 21 22 23 23 23 23 24 25 26 28 30 32 33 34 35 36 37 36 33 28 23 19 17 15 14 14 14 14 14 15 17 19 21 22 21 17 15
23 23 23 23 23 23 23 23 23 23 23 23 22 22 22 22 21 21 20 21 21 21 21 21 20 20 21 21 22 22 21 21 21 21 22 22 22 22 23 23 24 26 28 30 32 33 33 34 35 36 34 29 25 21 18 15 15 14 14 14 14 14 16 18 20 22 22 21 19
24 24 24 24 24 23 23 23 23 23 23 23 23 22 22 22 21 21 20 20 20 21 21 21 20 20 20 21 21 21 21 20 20 20 21 22 22 22 22 22 23 24 26 28 30 31 32 32 34 35 34 30 27 23 18 15 14 14 14 14 13 14 15 16 17 19 21 23 22
25 24 24 24 24 24 24 24 24 23 23 23 23 22 22 22 21 21 20 20 20 21 21 21 20 20 20 21 21 21 21 20 20 20 20 21 21 21 21 21 21 22 24 26 28 29 30 31 32 33 33 30 28 24 19 15 14 14 14 14 13 13 13 14 15 16 18 21 22
25 24 24 24 24 24 24 24 24 24 23 23 22 22 22 22 21 21 21 20 20 20 20 20 20 20 20 21 20 20 20 20 20 20 20 20 20 20 20 20 20 21 22 24 26 27 28 29 30 32 32 30 29 26 20 14 13 14 14 14 14 13 13 14 14 15 16 18 20
25 24 24 24 24 24 24 24 24 24 23 22 22 22 22 21 21 21 21 21 21 20 20 19 20 20 21 20 20 19 20 20 20 20 20 20 19 19 19 19 19 20 21 23 24 25 26 27 28 30 30 30 29 27 22 16 14 14 15 15 15 14 13 14 14 14 15 16 18
Wind_Direction
339 338 337 336 334 333 331 329 329 329 329 328 326 324 323 323 322 322 322 323 322 321 319 318 318 317 317 317 317 318 318 318 319 319 318 317 316 317 320 322 322 321 321 321 322 322 321 321 320 318 315 313 313 313 314 315 316 316 317 316 314 310 305 298 291 284 278 273 271
337 336 335 334 333 332 331 329 329 329 329 327 325 324 323 323 323 322 322 322 321 319 318 317 317 317 317 317 317 318 318 318 318 318 318 318 317 318 320 321 321 321 321 322 322 322 322 322 320 317 314 312 312 313 314 315 316 317 317 317 316 313 309 304 298 291 283 277 272
335 335 334 334 334 333 332 330 329 329 328 326 324 324 324 324 324 323 322 321 320 319 318 318 318 318 318 318 318 318 318 318 317 318 318 318 318 319 320 321 321 321 322 322 322 322 322 322 320 317 313 312 311 312 313 314 316 316 316 316 316 314 311 307 304 299 292 282 274
335 335 334 334 334 333 332 330 330 329 328 326 325 324 325 325 325 324 323 322 321 321 320 319 319 318 318 318 318 319 318 317 317 317 318 318 319 319 319 320 320 321 322 322 322 322 322 322 320 317 313 311 310 310 312 314 315 316 316 316 316 315 312 309 308 306 301 292 282
335 335 334 333 333 333 332 331 330 329 328 327 325 325 326 326 326 325 324 323 322 321 320 320 319 318 318 319 319 319 318 318 317 317 318 318 319 319 319 319 319 320 321 322 323 323 323 322 320 317 314 311 309 310 311 313 314 315 315 316 316 315 314 311 310 309 308 305 299
334 334 334 333 333 333 332 332 331 329 328 327 326 327 327 327 326 325 324 323 322 321 321 321 320 320 320 320 319 319 319 318 318 318 318 319 319 319 319 319 319 320 322 323 323 323 323 322 320 317 314 311 308 309 311 313 314 315 315 315 316 316 316 315 313 311 310 309 308
334 334 334 334 334 334 333 332 331 330 329 327 327 327 327 327 326 325 324 323 323 323 323 322 322 321 321 320 320 319 319 318 318 318 318 319 319 319 319 319 320 321 323 324 324 324 323 321 318 316 314 312 310 309 311 313 314 315 315 314 316 317 318 318 317 315 312 311 309
334 335 335 335 334 334 333 332 331 330 329 328 328 327 327 327 326 325 325 325 324 324 323 323 322 321 321 320 320 319 319 319 318 319 319 319 319 319 320 320 321 322 324 325 325 324 323 321 318 315 313 312 311 310 310 312 314 314 314 313 314 317 320 320 320 319 316 313 311
336 336 336 335 335 335 334 332 331 330 329 328 327 327 327 327 327 326 326 326 325 324 323 323 322 321 321 320 320 320 319 319 319 319 319 319 319 320 320 321 322 323 325 326 325 324 322 320 317 316 314 312 311 310 310 311 312 313 313 313 313 316 319 321 322 321 319 317 314
336 336 337 336 335 334 333 332 331 330 329 328 328 328 328 328 328 327 327 326 325 324 324 323 323 322 321 321 320 320 320 319 319 319 319 319 319 319 320 321 323 324 325 325 325 324 322 320 318 317 316 314 312 310 309 310 312 313 314 313 312 314 317 320 323 323 322 321 318
336 337 336 336 335 334 333 333 332 331 330 329 329 330 329 329 328 327 327 326 326 325 324 324 323 322 321 321 320 320 320 319 319 319 319 318 319 320 321 322 323 323 324 324 324 323 322 320 319 318 317 316 314 311 310 311 313 313 313 313 313 314 316 319 322 323 324 324 323
336 336 336 335 334 334 334 334 333 331 331 330 331 331 330 329 328 328 327 327 327 326 325 324 323 322 321 321 320 320 320 320 320 319 319 319 319 320 321 322 323 323 323 323 323 323 321 320 319 318 318 317 316 313 312 313 313 314 314 313 314 315 317 319 321 323 324 325 325
336 336 336 335 335 335 335 334 333 332 331 331 331 331 330 329 328 328 329 328 328 327 325 324 323 323 321 320 320 320 320 320 320 319 319 320 320 321 322 323 323 323 323 323 323 323 321 320 320 320 319 318 317 314 313 314 314 315 315 315 315 316 318 319 321 322 324 325 327
336 336 336 336 336 336 336 335 334 333 332 331 331 330 330 329 329 329 329 329 328 327 325 324 323 322 321 320 320 320 320 320 320 320 320 321 322 322 323 323 323 323 323 323 323 323 322 321 321 321 320 318 316 314 314 315 315 315 315 315 316 317 319 320 322 323 325 326 328
336 336 336 336 337 337 337 336 335 333 332 331 330 330 329 329 329 329 329 329 328 327 326 325 323 322 322 321 321 321 321 321 322 322 322 323 323 323 324 323 323 323 323 323 323 323 323 322 322 321 319 316 314 314 315 317 317 316 316 316 317 318 320 321 323 325 326 327 329
336 337 337 337 338 338 337 337 335 333 332 331 330 330 329 329 329 329 329 329 328 327 326 325 324 323 322 322 322 323 323 323 323 324 324 324 324 324 324 324 324 323 323 323 324 324 323 323 322 321 318 315 313 314 317 318 318 318 318 318 319 320 322 324 326 328 328 329 330
336 337 337 337 337 337 337 336 335 333 332 330 330 330 330 329 329 329 329 329 328 327 326 325 324 324 323 323 324 324 325 325 325 325 325 325 325 325 325 324 323 323 323 324 324 323 323 323 323 321 317 313 312 314 318 320 321 321 321 322 323 325 326 328 331 331 331 332 332
336 336 336 336 336 336 336 335 334 332 331 330 330 330 330 330 329 329 329 329 328 327 326 325 325 325 325 324 325 326 326 326 326 326 325 325 325 325 325 325 324 324 324 324 323 323 323 323 323 321 317 313 312 316 320 323 324 325 326 327 329 331 333 335 336 336 335 335 335
335 335 336 336 335 335 334 334 333 332 331 330 330 330 330 330 330 329 329 329 329 328 327 327 327 327 326 326 326 327 328 327 327 326 326 326 326 326 326 326 325 325 324 323 323 322 322 322 322 319 316 312 315 320 324 327 329 331 333 334 336 338 340 342 342 342 341 339 339
335 335 335 334 334 333 333 333 332 332 331 331 330 330 330 331 331 331 330 329 329 329 329 328 328 328 328 328 328 329 329 329 329 328 328 328 328 328 327 327 326 325 324 323 323 322 322 321 320 317 315 314 319 324 329 334 337 338 340 341 343 346 348 349 349 348 347 345 343
334 334 333 333 332 332 332 331 332 331 331 331 330 330 331 332 332 332 331 330 330 330 331 331 330 330 330 330 330 330 330 330 330 330 329 330 330 330 329 327 326 325 325 324 324 323 322 320 318 316 314 316 324 332 338 342 343 344 345 347 350 352 354 354 353 352 351 350 348
333 333 332 332 331 331 331 331 331 332 331 331 331 331 332 333 332 332 332 331 331 332 332 332 332 332 331 331 331 331 331 331 331 331 331 332 331 331 330 329 327 326 326 326 325 324 322 320 319 317 315 318 332 342 347 347 346 347 350 353 354 355 356 355 354 353 353 353 352
332 332 331 331 330 330 330 330 331 332 332 332 331 332 333 333 333 333 333 333 333 333 333 333 333 333 332 332 332 332 333 333 332 333 333 334 333 332 331 330 328 328 327 327 326 324 322 321 323 324 322 326 345 351 351 349 348 350 352 354 354 354 354 354 352 351 351 353 354
331 331 331 331 330 330 331 331 331 331 331 332 332 333 333 333 334 334 334 334 334 334 333 334 334 333 333 332 333 333 334 334 334 334 335 335 335 334 332 331 330 330 329 328 327 324 323 324 329 333 338 344 352 351 348 345 345 348 350 350 350 350 350 350 350 349 349 351 354
331 331 331 331 331 331 331 332 332 332 331 332 332 332 333 334 334 334 334 334 334 334 334 334 334 334 333 333 333 333 335 335 335 335 336 337 337 336 334 333 332 332 331 329 327 326 325 326 332 337 345 346 347 345 343 342 342 344 346 347 347 347 347 348 348 348 348 350 352
330 331 331 332 331 331 331 332 332 332 331 331 332 332 333 334 334 334 334 333 333 333 333 334 334 334 333 333 333 334 335 336 336 336 337 338 338 337 337 335 334 333 332 330 329 328 327 327 332 337 342 346 344 344 345 344 343 343 344 346 348 349 348 348 347 347 347 349 352
330 331 331 332 332 332 332 332 333 332 331 332 331 331 332 334 334 334 334 333 333 332 332 332 333 334 334 333 334 335 336 336 337 337 338 338 338 338 337 336 335 334 333 331 331 330 330 332 338 343 353 356 348 345 346 345 343 342 343 347 351 353 352 350 348 346 346 349 354
329 330 331 332 332 332 332 333 333 332 332 331 330 331 332 333 334 334 333 333 332 332 332 332 333 334 334 334 334 335 336 337 338 338 339 339 339 338 338 337 336 335 334 333 333 333 336 342 352 5 16 2 351 347 346 345 343 343 345 350 354 355 354 353 351 349 348 351 359
329 329 330 331 331 332 332 333 332 331 331 330 329 330 332 333 333 334 334 333 332 332 332 332 333 333 333 332 332 333 335 337 338 338 339 340 340 339 338 338 337 336 335 336 336 338 344 355 10 22 17 3 355 350 348 347 345 345 348 353 357 358 357 355 354 352 353 359 8
329 329 329 330 330 330 331 331 331 330 330 329 329 330 331 332 334 334 335 334 333 332 331 331 331 331 331 331 331 333 335 337 338 338 339 340 340 339 339 339 338 337 337 338 338 344 353 5 17 20 10 2 357 353 351 349 348 348 350 355 359 1 360 357 356 357 0 8 15
328 328 328 328 328 328 329 329 329 329 329 328 328 329 331 332 333 335 335 334 332 331 330 330 330 330 330 331 331 333 334 336 337 338 339 340 340 339 339 339 339 338 339 340 341 347 358 9 16 15 6 360 357 356 354 352 350 350 352 357 2 4 2 359 357 358 3 12 19
327 326 326 326 325 326 326 327 327 328 327 327 327 328 330 331 333 334 334 334 332 331 331 330 330 330 330 331 332 332 333 335 336 338 339 340 339 339 340 340 340 340 341 343 344 349 358 8 14 14 7 1 357 357 356 354 352 352 355 360 5 7 5 0 358 360 4 12 21
325 325 324 323 323 323 324 325 326 326 326 325 326 327 328 330 331 333 334 334 334 332 331 330 329 329 330 330 331 332 333 334 335 337 339 340 339 340 340 341 341 342 343 345 346 350 357 5 12 14 10 4 359 357 357 355 354 355 358 2 7 8 6 2 0 3 8 15 25
323 323 322 321 321 321 321 322 323 324 324 324 324 325 327 328 330 332 333 334 334 333 331 329 328 328 328 329 330 331 332 333 335 337 339 340 340 340 341 341 341 342 344 346 348 351 355 2 9 12 11 6 2 358 356 355 355 357 0 5 9 10 8 4 3 6 12 23 32
322 321 320 319 319 319 320 321 321 322 323 323 323 324 325 327 328 330 331 332 333 332 331 329 328 328 328 329 329 330 331 332 334 337 339 340 340 340 341 341 341 343 345 348 350 353 355 359 4 9 10 7 3 358 356 355 355 357 1 6 9 11 10 9 6 7 12 27 39
321 320 319 318 318 318 319 319 320 321 321 322 322 323 324 325 326 327 329 330 331 331 331 330 329 329 329 329 330 330 330 331 333 336 338 340 340 340 340 341 341 343 346 349 352 354 356 358 1 5 8 6 2 358 356 355 356 358 2 6 9 11 11 12 9 8 14 29 44
320 320 319 318 317 317 318 319 320 320 320 321 321 322 323 323 324 325 327 329 330 331 330 330 329 329 329 329 328 328 328 330 332 335 338 339 339 340 340 341 342 343 346 349 352 354 356 358 360 2 5 4 1 357 355 354 356 359 2 6 8 9 10 12 10 11 17 31 46
320 319 319 318 317 317 318 319 319 319 319 320 320 321 322 323 323 324 325 327 328 329 329 329 328 328 328 327 326 326 327 328 332 335 337 339 339 339 340 341 341 343 345 348 351 354 355 358 359 1 2 2 358 356 353 353 355 358 2 5 5 5 7 11 11 14 20 31 43
320 320 319 318 318 318 318 318 319 319 319 319 320 321 322 323 322 323 323 324 325 326 326 326 326 326 326 326 325 326 326 328 331 335 337 338 338 338 339 340 341 343 345 348 351 353 355 358 359 0 1 1 358 356 354 352 354 357 2 4 3 1 3 10 16 20 24 31 38
320 320 319 319 318 318 319 319 319 319 319 319 320 321 321 322 321 321 321 322 323 324 324 324 325 325 325 326 325 325 326 328 331 334 336 337 337 338 339 340 341 343 346 348 351 353 355 357 359 0 2 1 358 357 356 356 356 358 1 2 0 357 360 9 19 24 26 30 36
321 320 320 320 320 319 320 319 319 319 319 320 320 320 320 321 321 321 321 321 322 322 323 323 323 324 325 325 325 325 326 328 330 333 336 337 337 339 340 341 342 344 346 349 351 353 355 358 359 0 2 2 360 359 1 5 4 2 359 358 356 354 356 4 14 20 25 30 38